Tracking 19562 objects as of 24-Mar-2019
HD Live streaming from Space Station
objects crossing your sky now

INSAT 3DR

Track INSAT 3DR now!
INSAT 3DR is classified as:


NORAD ID: 41752
Int'l Code: 2016-054A
Perigee: 35,742.3 km
Apogee: 35,844.9 km
Inclination: 0.1 °
Period: 1,436.1 minutes
Semi major axis: 42164 km
RCS: Unknown
Launch date: September 8, 2016
Source: India (IND)
Launch site: SRIHARIKOTA (SRI)

INSAT-3DR is an advanced meteorological satellite of India configured with an imaging System and an Atmospheric Sounder.
aabbcc
Your satellite tracking list
Your tracking list is empty




NASA's NSSDC Master Catalog

Two Line Element Set (TLE):
1 41752U 16054A   19081.88957080 -.00000102 +00000-0 +00000-0 0  9993
2 41752 000.0854 096.6685 0012161 186.3558 291.2597 01.00272337009307
Source of the keplerian elements: AFSPC